GFSMA_925_rhum_144.txt.gz
RH
95 89 88 97 93 91 82 90 82 74 74 69 62 64 66 64 67 69 69 80 86 88 94 95 96 94 87 89 84 67 61 61 63 61 60 58 58 60 67 72 77 82 92
95 94 92 96 91 91 86 88 82 74 70 67 61 66 67 65 67 70 70 81 86 88 89 94 93 94 97 97 97 88 75 67 64 64 63 62 63 65 70 76 85 97 96
99 99 94 94 95 94 91 90 82 76 69 66 60 63 66 66 73 72 71 70 83 85 88 94 91 93 95 94 94 92 92 85 77 77 73 70 70 69 75 83 96 96 92
99 99 99 98 98 100 94 93 86 80 71 66 60 62 66 70 71 72 70 70 74 73 81 78 90 96 95 92 91 84 84 85 87 88 86 86 85 85 86 94 95 91 95
86 97 100 99 100 100 100 100 93 82 70 63 59 61 67 69 74 72 70 68 70 76 71 77 69 81 92 89 91 95 97 98 96 95 92 90 87 89 88 92 91 90 91
61 91 100 100 100 100 100 100 94 84 69 66 62 60 66 70 72 72 71 68 66 75 76 76 75 74 66 74 80 82 87 86 92 89 85 83 82 82 78 77 79 84 87
51 62 98 98 98 100 100 100 97 88 76 70 65 63 64 71 76 74 74 70 66 68 69 71 74 74 76 70 74 76 76 75 76 79 77 77 81 80 81 81 90 86 79
60 61 67 92 98 99 100 100 99 91 80 72 67 60 61 65 73 77 73 71 68 70 70 73 75 77 77 78 83 78 75 76 76 76 77 81 85 86 83 91 94 88 82
60 63 68 76 94 98 100 100 100 91 80 78 68 63 59 59 61 62 71 70 70 71 72 74 76 75 77 79 84 80 74 75 74 75 85 88 90 89 91 92 94 97 93
60 65 69 74 76 93 100 100 99 96 85 81 81 68 58 54 66 52 63 67 66 66 68 74 76 77 81 81 83 82 76 76 78 86 98 98 96 91 96 96 86 90 96
60 66 70 72 81 91 94 99 100 99 91 84 79 74 75 77 68 57 48 60 62 65 66 72 73 74 81 82 86 78 74 74 79 85 87 98 98 94 99 95 94 91 94
59 64 70 73 80 84 96 99 100 99 95 84 81 73 68 67 72 63 56 51 57 63 72 77 78 79 83 88 85 75 74 74 80 84 86 100 94 97 99 99 98 98 93
62 61 68 72 79 85 98 91 99 99 98 90 81 74 73 71 62 65 56 58 67 84 88 89 89 88 89 86 78 75 76 76 83 86 87 100 98 99 92 86 91 93 92
60 63 66 69 70 79 91 100 100 100 99 97 88 78 73 70 70 69 64 58 73 81 93 85 99 94 90 81 83 77 79 79 85 87 88 95 84 79 80 80 76 84 86
60 63 64 66 72 70 75 97 100 99 100 96 87 80 76 77 74 74 71 60 55 67 84 84 96 87 89 90 86 81 85 85 87 88 84 82 83 85 80 70 49 50 81
66 66 69 70 70 72 71 77 94 100 100 100 100 94 82 81 85 87 80 77 66 56 65 73 96 77 92 89 93 89 90 99 90 85 85 85 85 82 64 44 41 49 69
70 69 69 72 71 72 80 76 82 94 100 100 100 100 97 92 93 95 94 94 80 66 68 80 86 93 94 96 97 99 99 98 98 92 88 85 82 68 49 46 46 60 58
73 70 71 70 69 78 80 84 82 87 97 99 99 100 100 100 100 99 100 98 89 77 72 67 96 97 99 98 99 100 100 100 100 97 93 86 75 60 53 50 52 72 76
77 76 76 79 80 83 80 78 78 79 92 92 96 100 100 100 100 100 100 99 98 86 80 71 86 100 100 100 100 100 100 100 100 97 89 82 72 60 54 56 66 79 82
80 79 78 80 84 88 89 82 81 81 82 90 93 94 99 99 100 100 100 100 98 93 89 80 90 99 100 100 100 100 100 100 100 97 90 84 73 63 61 62 67 72 76
76 78 81 85 86 87 87 89 86 86 85 85 83 84 91 92 97 95 99 100 100 100 94 90 89 99 99 99 99 99 100 100 100 98 93 88 75 64 61 67 64 67 71
88 95 99 99 93 90 90 87 89 88 90 93 88 90 93 97 100 100 100 100 100 100 97 94 93 94 95 96 100 100 99 100 97 98 98 89 79 70 73 80 67 67 68
100 100 100 99 99 99 99 94 93 100 100 100 100 99 100 100 100 100 100 100 100 99 95 97 95 97 92 95 97 100 100 98 93 90 98 91 88 83 76 77 72 70 74
100 100 99 100 99 100 100 100 100 100 99 100 100 99 99 100 100 99 100 98 100 100 99 100 99 98 97 94 96 92 97 100 99 95 91 94 90 86 84 76 72 77 90
100 100 100 100 100 100 100 100 99 100 100 100 100 100 100 100 100 100 100 100 100 100 99 100 100 99 100 100 98 100 100 100 100 99 99 85 92 88 91 93 88 86 100
100 100 100 100 100 100 100 94 94 96 96 95 96 95 92 96 96 99 99 100 100 99 100 99 100 100 100 100 100 100 100 99 97 99 96 92 97 92 97 91 86 86 92

GFSMA_925_rhum_147.txt.gz
RH
96 92 82 90 94 93 90 90 85 72 68 64 58 54 53 51 55 59 65 70 80 81 85 91 95 96 94 91 86 70 61 57 57 59 58 58 59 62 66 74 80 89 99
92 91 83 85 95 89 85 90 82 70 64 63 58 52 54 56 55 59 62 74 76 83 85 92 91 94 95 96 97 91 73 63 61 61 62 61 63 65 69 76 90 99 92
88 91 90 85 90 89 83 87 83 77 64 62 57 50 54 55 56 58 62 64 74 79 84 92 86 90 93 93 91 93 93 74 79 82 82 81 80 80 81 83 94 98 92
71 90 93 91 90 88 86 84 86 81 72 62 59 51 51 55 55 60 63 64 66 80 76 80 82 88 91 96 94 91 94 83 85 87 88 87 88 88 89 95 96 90 88
55 71 84 91 92 90 90 88 85 83 77 66 60 53 53 56 59 60 61 61 62 67 69 73 61 75 89 94 92 91 93 95 96 96 93 90 86 85 84 87 89 87 96
44 60 78 87 93 96 97 92 89 83 78 71 62 55 54 58 60 65 63 61 60 66 70 67 72 65 63 76 78 82 91 94 93 90 89 88 83 79 80 79 78 79 89
43 42 74 85 90 96 98 96 92 87 81 71 61 58 56 59 61 65 66 64 61 60 68 69 70 72 69 65 61 67 71 72 75 78 80 80 78 77 80 81 82 86 87
48 47 49 80 89 98 98 100 98 93 84 72 66 62 66 60 62 66 67 67 62 61 61 64 65 69 69 70 73 66 70 71 73 75 77 79 79 79 85 87 87 95 93
47 49 48 50 80 92 94 98 99 98 93 80 68 63 69 67 62 69 73 70 65 64 63 64 64 67 70 73 75 78 77 72 72 73 74 81 84 85 88 90 94 94 94
51 50 55 57 56 73 98 100 100 100 94 86 76 64 56 50 62 71 73 72 68 64 64 67 68 71 71 72 75 78 82 75 72 73 82 99 100 98 89 95 95 98 90
57 54 57 59 62 65 82 98 99 100 98 90 85 79 67 66 59 60 78 68 68 64 64 65 68 70 74 76 78 79 75 72 71 74 88 100 100 100 98 98 98 97 98
59 57 59 62 65 69 73 87 99 100 96 95 87 81 74 71 73 75 74 74 72 64 64 63 65 68 73 74 77 77 67 67 72 73 82 100 99 100 99 100 99 96 99
60 56 57 64 67 70 73 77 88 98 99 95 92 88 82 74 65 64 57 70 74 66 60 64 68 72 74 77 79 78 71 69 72 73 77 100 99 99 96 100 98 100 100
56 54 56 59 65 66 70 79 82 91 100 97 94 91 88 86 81 70 66 66 85 82 82 83 78 81 81 81 80 81 70 73 73 74 78 89 99 100 95 76 76 78 86
54 57 55 57 61 61 67 74 92 88 91 97 97 94 89 86 85 85 81 67 68 83 89 86 92 88 88 89 85 83 79 74 76 77 80 83 95 90 83 79 80 73 51
54 52 57 59 60 60 62 67 78 95 98 100 100 99 93 90 83 79 76 75 71 64 67 63 84 66 83 92 90 87 83 84 83 80 83 87 88 84 83 85 79 54 43
57 58 57 62 60 58 63 66 68 79 100 100 99 100 98 94 88 84 89 88 87 83 85 72 82 80 82 90 93 94 94 90 93 88 88 89 84 84 86 82 68 47 43
60 58 59 58 59 61 61 64 70 71 90 100 100 100 100 100 100 96 100 100 100 93 92 81 84 90 83 82 93 95 98 100 98 94 90 89 87 84 83 76 61 46 47
61 66 64 60 60 63 65 68 69 71 73 92 96 100 99 100 100 100 100 100 100 98 99 96 89 90 90 91 99 100 100 100 100 100 100 96 98 96 85 74 60 49 52
74 71 70 69 68 69 69 73 76 74 73 75 86 93 95 99 100 100 100 100 100 100 100 100 98 95 94 98 100 100 100 100 100 100 100 98 93 93 84 76 61 50 56
73 74 73 73 72 73 76 78 80 80 79 78 79 86 89 93 92 92 97 99 100 100 100 99 98 96 98 99 99 98 100 100 99 100 99 98 98 93 87 77 64 61 62
73 74 76 76 76 77 80 82 85 87 83 81 82 80 90 92 94 96 95 98 98 99 98 97 95 94 93 94 98 100 100 100 98 98 100 98 99 96 91 84 74 61 57
98 100 100 99 100 96 89 88 88 90 89 85 88 88 86 90 91 90 94 97 94 95 94 92 96 95 93 95 97 100 100 97 91 84 96 100 100 100 96 90 76 69 75
100 100 100 99 100 99 99 93 89 93 97 100 100 99 100 100 100 100 100 100 100 100 99 99 100 96 91 94 96 89 94 97 98 99 98 99 97 98 98 93 84 87 73
100 100 100 100 100 100 100 100 100 100 100 100 100 100 99 100 100 100 100 100 100 100 100 100 100 100 100 100 99 100 100 100 98 99 100 98 98 100 100 100 94 88 78
100 100 98 96 98 100 99 100 100 100 99 100 98 98 97 95 95 94 95 98 99 100 98 97 98 99 100 100 100 100 100 98 97 100 98 100 99 97 99 100 95 85 88

GFSMA_925_rhum_150.txt.gz
RH
86 86 84 85 91 90 90 97 94 88 84 72 71 62 59 53 52 59 61 65 66 81 83 88 95 95 86 84 85 72 64 59 58 57 58 61 63 66 68 71 81 96 99
88 86 86 91 88 94 88 93 92 86 81 75 67 59 56 53 52 57 62 68 65 76 82 88 92 94 96 95 95 88 71 64 62 65 66 69 69 74 78 82 87 99 92
78 91 90 85 87 86 93 92 93 78 74 68 66 62 53 54 55 56 61 66 69 69 79 88 89 93 94 94 92 91 92 77 79 80 82 82 82 86 87 90 96 97 91
51 72 87 89 88 90 87 91 91 84 75 68 64 61 53 54 57 57 59 65 69 69 69 78 83 88 93 94 91 88 89 85 88 87 91 92 92 91 90 90 90 87 87
37 58 63 79 77 93 93 86 91 87 81 72 64 61 54 52 55 55 59 62 65 69 70 66 65 72 82 87 89 93 89 91 91 93 94 91 86 81 82 84 84 82 94
40 41 60 71 79 82 81 87 91 90 84 78 68 62 56 52 56 56 60 62 62 64 70 70 70 65 62 70 81 93 95 96 90 90 89 85 86 82 79 81 79 79 92
41 40 48 64 84 81 78 81 86 90 88 81 73 64 59 54 57 59 61 63 62 61 62 66 71 70 70 62 54 57 60 68 70 74 77 76 78 78 78 81 85 86 95
42 41 41 52 71 88 88 81 81 90 91 86 76 67 78 63 60 60 64 66 64 63 61 65 66 71 72 68 64 63 57 57 66 71 72 75 78 81 80 83 87 89 93
39 44 45 45 68 81 95 88 87 89 94 91 78 68 80 76 70 64 64 67 68 65 62 61 62 67 68 68 70 70 72 64 66 69 71 74 79 96 90 88 90 94 92
46 41 46 46 48 75 86 93 96 92 86 95 90 75 62 61 75 87 67 70 70 68 65 62 62 62 64 67 71 73 74 71 71 71 70 73 95 100 100 99 92 93 94
49 48 45 49 51 48 74 84 96 96 88 94 94 85 78 73 70 78 94 79 77 73 68 65 64 66 65 64 69 72 75 74 72 70 70 79 92 99 98 100 97 97 99
54 55 52 52 54 58 55 65 82 92 97 93 89 82 80 80 84 86 84 82 81 74 71 66 64 66 68 68 68 71 73 74 74 71 70 85 94 99 99 100 99 99 95
59 60 59 58 59 60 61 64 68 99 99 100 93 91 89 80 76 71 75 79 83 70 71 68 66 65 65 69 72 73 75 74 71 68 70 84 95 98 99 100 100 100 99
58 60 61 61 60 62 64 64 69 74 93 95 92 92 88 85 83 78 72 65 86 86 74 66 65 65 64 67 72 74 74 74 71 72 74 75 90 98 99 100 97 82 90
55 57 60 61 60 64 65 66 70 69 74 91 95 92 94 91 88 85 81 77 75 79 84 77 72 66 65 69 73 76 79 76 77 78 76 76 77 93 100 100 88 76 76
56 55 56 57 58 60 65 66 68 73 78 84 97 95 98 93 92 94 90 85 83 74 83 74 77 69 62 60 73 78 82 83 82 80 78 78 80 84 96 99 83 79 79
51 56 55 56 57 58 61 62 67 71 79 89 91 98 96 87 85 91 91 89 90 88 87 75 76 68 66 70 77 75 87 85 87 87 83 82 84 84 90 93 80 82 81
52 52 56 57 58 58 60 61 62 68 72 84 91 94 100 100 100 99 98 97 92 88 87 84 83 94 92 91 76 84 94 74 85 82 89 94 95 96 96 92 84 84 81
56 55 58 59 55 58 62 60 62 64 68 71 85 92 96 99 100 100 99 100 100 99 100 97 95 98 98 94 96 95 85 89 89 86 90 100 100 98 98 96 90 87 81
59 61 60 60 62 61 60 62 65 67 68 70 75 89 98 100 99 99 99 100 99 99 99 98 97 98 100 99 100 100 99 99 87 78 94 99 98 99 97 97 99 93 87
63 65 63 66 68 65 62 64 67 69 72 74 75 77 91 97 94 85 99 100 100 100 99 99 98 98 100 100 99 99 100 90 88 92 92 99 99 97 94 95 92 91 91
76 76 77 76 80 76 73 72 72 76 80 81 79 75 78 90 98 92 91 84 92 99 99 98 97 97 97 97 95 97 99 99 96 94 100 100 99 99 89 88 85 87 85
100 98 98 98 98 93 85 82 80 79 83 85 90 90 82 88 88 88 95 94 89 90 90 94 97 97 94 94 94 99 98 94 88 85 85 100 100 100 93 92 84 84 82
100 100 100 100 99 99 95 86 87 91 100 100 100 100 99 100 100 99 100 100 100 100 100 100 100 97 97 94 92 95 95 94 92 94 91 96 94 100 91 88 88 90 91
100 100 100 99 100 99 100 99 97 100 100 100 100 99 100 99 99 99 100 100 99 100 100 100 100 100 100 100 100 100 100 100 97 99 100 99 94 100 100 96 91 95 97
96 95 94 96 99 100 100 100 99 100 100 100 100 100 98 99 99 94 92 94 95 96 90 85 81 78 80 84 90 96 100 100 100 99 95 100 99 100 100 97 98 100 100

GFSMA_925_rhum_156.txt.gz
RH
94 88 91 91 90 82 89 94 91 96 95 87 81 73 61 40 52 59 67 72 70 68 77 92 96 95 95 95 89 75 69 60 60 60 63 63 65 68 72 79 86 97 91
51 79 92 95 90 90 84 85 90 94 95 92 88 79 73 66 39 53 60 70 73 66 69 84 91 94 94 95 95 96 90 71 65 64 69 74 79 82 84 86 91 93 90
38 43 72 88 95 92 89 88 89 92 97 96 94 86 77 72 64 46 58 64 70 68 68 74 86 94 94 94 94 95 96 95 78 70 78 83 86 91 93 92 89 88 88
35 37 42 67 84 93 95 99 100 100 100 100 97 92 85 76 73 62 57 60 69 65 68 70 73 86 93 95 93 92 95 94 90 84 84 87 92 92 92 87 89 86 86
37 37 36 41 53 82 100 100 100 100 100 100 98 91 83 79 74 64 60 58 64 63 64 65 67 72 79 86 94 92 92 92 90 87 84 88 92 89 86 87 87 86 83
38 41 40 36 38 56 86 97 100 99 100 100 99 94 86 81 75 68 59 57 57 59 62 63 65 70 70 74 78 92 93 91 90 89 86 85 88 86 86 86 87 86 88
35 40 42 43 43 51 79 83 95 100 100 100 100 99 90 82 76 70 62 56 57 58 60 62 63 66 67 68 66 66 75 93 92 89 87 85 86 87 90 89 91 93 89
41 40 43 49 49 54 68 86 87 96 99 100 93 97 98 90 80 72 66 59 56 58 59 62 63 64 64 64 63 62 65 61 77 92 93 87 86 91 94 98 96 96 91
42 46 46 45 47 55 64 76 89 90 86 98 92 80 99 96 86 75 72 67 62 61 58 59 63 64 64 64 64 63 59 62 61 70 86 90 90 94 99 98 97 98 96
44 46 50 50 51 54 60 68 83 91 89 83 100 99 74 73 94 90 76 70 63 64 59 61 62 64 64 63 64 62 58 54 51 58 67 91 95 96 100 97 91 93 98
49 48 50 52 53 53 55 64 75 80 87 82 87 90 100 85 76 87 85 82 75 74 66 67 65 66 67 65 64 61 59 56 62 63 61 81 94 95 96 96 94 86 89
56 54 52 53 54 56 57 56 62 74 73 86 84 81 83 86 91 88 91 89 80 74 66 72 71 66 68 68 66 63 58 55 56 60 61 69 88 94 94 96 93 87 86
66 63 61 60 62 61 58 57 59 66 71 72 73 78 77 83 80 81 79 88 91 74 73 75 73 72 72 72 70 66 60 57 56 58 60 65 79 87 80 83 91 95 90
71 68 66 64 62 65 64 62 63 63 69 70 71 76 78 83 84 82 81 79 91 92 83 74 67 67 70 71 69 70 70 65 60 58 64 67 69 84 87 82 86 88 88
77 74 70 67 64 65 67 67 70 73 66 65 66 64 68 80 85 90 87 83 82 87 84 76 75 66 64 63 60 63 70 70 61 60 60 68 70 76 82 83 85 95 90
71 73 71 68 67 68 69 72 73 73 70 68 67 64 67 72 72 82 81 93 92 86 88 74 72 68 65 66 64 66 67 70 64 68 68 71 74 76 80 79 80 93 95
60 65 71 70 67 68 68 76 73 74 76 70 68 65 66 65 70 78 75 87 99 98 93 83 78 70 69 68 68 66 65 65 70 70 68 70 78 80 82 82 81 82 89
56 58 62 66 70 72 71 74 72 74 74 74 66 64 67 71 74 79 88 99 100 100 95 88 88 86 80 73 72 74 73 76 78 76 70 79 79 84 87 87 88 87 79
84 66 66 67 67 63 65 70 60 65 67 64 66 67 75 72 83 86 91 97 97 97 99 98 88 84 87 84 85 84 83 81 80 78 82 81 77 67 78 86 94 95 94
86 72 69 69 65 56 62 73 58 58 62 61 61 63 64 66 76 83 87 92 93 94 97 96 95 92 90 96 92 96 100 91 91 87 85 78 76 73 72 70 86 86 89
96 83 80 84 86 86 92 65 61 63 60 62 64 63 62 66 64 73 82 86 81 88 96 94 92 90 93 100 98 95 100 98 98 93 98 93 90 88 87 84 74 78 82
100 100 95 99 100 99 99 93 89 79 78 76 71 70 69 68 70 74 82 86 84 92 96 94 91 90 83 88 92 93 98 97 94 96 99 100 100 100 97 96 87 84 80
100 100 100 98 97 97 98 90 87 90 94 93 90 81 72 69 76 80 82 88 88 92 97 97 97 96 91 86 89 99 99 97 92 91 92 99 97 100 87 96 94 99 98
99 98 98 100 100 99 99 89 80 78 82 95 100 99 100 99 98 94 100 100 100 100 98 99 100 100 100 100 100 100 100 100 100 98 99 97 94 98 95 96 92 91 91
97 100 100 98 98 99 100 96 75 79 99 100 100 100 100 100 99 99 98 100 100 100 100 100 100 100 100 100 99 100 100 97 100 100 100 100 100 100 99 98 96 96 97
84 89 97 99 98 99 100 99 100 100 100 100 100 100 99 98 100 100 100 100 100 100 99 100 97 97 91 86 84 90 98 99 100 100 100 98 99 94 98 97 89 95 94

GFSMA_925_rhum_159.txt.gz
RH
46 78 86 87 87 90 81 84 95 96 93 94 88 76 68 52 45 62 67 66 71 74 84 92 94 95 95 95 96 97 96 80 69 66 66 65 66 69 72 80 89 94 85
33 38 46 68 86 96 96 87 98 100 99 93 92 84 75 68 58 45 62 61 69 72 76 86 92 92 94 93 94 96 96 93 77 72 69 69 75 78 82 86 94 92 92
29 34 37 43 59 88 95 100 100 100 98 100 96 91 85 79 72 65 44 51 61 71 73 80 85 91 93 91 92 94 96 96 96 94 77 76 83 85 90 94 92 88 86
32 33 34 39 41 54 95 100 100 100 100 100 99 98 92 88 80 72 68 49 54 61 70 73 75 78 88 94 92 91 93 94 91 90 83 81 83 88 91 92 84 83 86
30 30 35 36 39 40 49 90 99 100 100 100 100 100 97 91 86 82 73 70 55 58 64 67 71 71 73 80 92 91 88 92 93 94 92 88 84 86 89 87 79 84 85
35 35 34 33 38 44 54 71 93 94 99 100 100 100 100 97 91 85 75 72 66 58 60 64 66 68 70 73 75 91 91 90 89 89 88 87 84 82 86 84 84 85 84
40 38 38 38 37 42 55 67 82 93 90 93 96 100 98 99 94 90 82 76 74 63 59 61 64 64 64 68 70 73 75 92 89 85 86 85 86 83 87 84 89 88 88
47 45 43 42 42 46 48 53 82 87 87 85 86 85 97 98 100 92 87 82 76 70 62 60 62 61 62 62 63 66 68 66 77 91 87 84 83 82 82 89 91 91 94
53 49 46 44 44 50 54 56 63 81 81 84 84 81 98 94 96 94 91 86 80 74 66 61 60 60 61 62 62 64 65 64 61 70 90 89 88 87 92 92 93 89 88
60 56 52 49 48 51 54 53 61 71 84 83 91 94 91 83 93 95 91 94 85 87 75 67 65 59 60 60 62 62 61 61 62 64 71 91 93 93 93 90 87 86 84
67 61 57 55 55 55 58 60 60 68 74 82 81 77 89 95 85 89 90 88 95 91 85 75 72 68 61 61 62 62 63 62 61 63 63 62 88 91 90 90 87 83 85
65 65 62 58 56 55 57 61 60 61 70 78 82 79 78 81 81 91 91 90 86 73 75 75 72 68 65 62 62 61 61 62 62 62 62 63 66 75 91 89 86 86 84
76 66 63 64 64 62 61 60 61 61 62 71 77 78 77 76 76 83 83 86 90 71 66 71 71 69 68 66 64 63 64 65 66 65 63 58 63 64 73 77 86 86 86
87 77 72 72 71 69 67 68 70 67 68 67 73 73 78 78 78 78 79 87 94 93 82 68 63 62 61 68 66 63 69 66 66 67 65 66 61 61 66 69 75 82 83
95 83 77 77 75 73 70 68 71 74 74 73 75 75 74 70 72 73 77 77 80 85 83 79 77 66 64 62 62 61 65 60 60 65 69 66 63 64 65 71 73 81 82
89 81 74 73 73 72 71 70 73 76 80 81 79 76 73 72 66 68 70 75 80 81 86 71 72 70 66 64 64 66 68 65 66 70 70 69 67 63 68 72 74 81 82
90 76 71 69 68 68 69 71 72 72 81 84 78 77 72 71 67 65 71 77 83 87 88 78 77 75 73 70 68 68 69 69 67 66 67 69 67 70 71 72 74 81 83
86 81 79 73 66 67 69 75 76 75 78 85 80 72 75 71 68 66 68 75 81 80 81 87 84 84 82 77 74 73 72 69 72 72 72 71 74 76 78 75 79 82 86
93 84 85 83 75 71 72 73 74 76 77 77 74 74 76 68 66 67 72 86 87 89 84 95 89 86 84 87 86 80 79 81 86 82 82 80 78 76 76 82 85 82 88
99 100 94 86 83 78 73 84 88 84 82 83 72 70 68 64 66 70 72 79 85 97 98 96 94 89 85 88 90 93 93 88 89 85 82 85 89 84 86 92 88 86 79
100 100 100 100 100 100 97 92 83 86 92 87 78 73 70 66 65 63 70 80 85 93 98 96 92 92 92 100 98 92 96 84 87 92 92 89 86 90 84 83 85 83 80
99 100 99 100 100 100 99 100 100 99 85 79 81 77 76 72 70 67 66 68 68 84 86 86 87 93 89 93 93 93 96 96 95 91 96 95 90 94 90 83 82 79 87
100 99 99 99 98 96 98 100 93 81 85 89 90 90 90 89 84 84 72 72 79 80 89 91 91 90 90 83 80 87 95 96 92 89 88 99 88 96 83 87 86 82 87
100 99 99 97 95 94 95 100 84 76 79 89 99 98 98 99 99 100 100 98 100 100 98 98 100 100 100 99 98 97 96 98 97 99 100 98 97 96 94 96 94 96 95
85 93 98 99 99 97 97 99 93 85 96 100 100 99 99 100 100 92 98 100 100 100 100 100 100 100 100 100 100 100 100 100 100 100 100 100 100 99 97 95 100 100 100
79 77 78 83 92 97 100 100 100 100 100 100 100 100 100 100 99 98 100 100 100 100 100 100 99 95 92 91 92 96 98 99 100 100 100 99 100 98 96 90 92 91 91

GFSMA_925_rhum_162.txt.gz
RH
30 34 40 54 82 91 93 94 97 100 99 92 92 94 88 72 53 50 62 68 68 72 79 91 94 94 91 97 96 96 96 93 74 67 65 64 66 66 71 76 92 98 92
23 28 34 38 45 56 83 97 100 95 99 100 95 89 91 83 74 56 46 60 68 67 71 85 91 88 91 92 92 95 96 95 95 85 73 71 73 75 77 85 98 93 93
28 27 32 34 39 50 65 85 99 100 100 100 99 99 86 88 82 76 66 50 62 65 67 73 89 90 87 86 89 90 95 97 98 96 95 87 77 79 81 87 94 94 84
30 31 30 30 34 36 45 78 81 95 100 100 100 100 99 88 88 82 76 72 52 57 61 69 74 77 87 93 86 86 88 93 91 90 92 91 80 81 80 92 92 85 86
32 32 34 34 29 31 37 46 66 86 92 98 100 100 100 100 93 89 83 78 75 58 48 58 68 71 73 83 91 85 85 85 85 85 87 86 86 86 80 88 90 83 86
45 43 36 35 36 37 36 39 56 68 85 95 91 97 100 99 99 99 92 84 81 74 66 51 56 68 69 73 80 90 88 84 84 84 83 82 84 82 81 86 89 83 81
62 54 49 44 39 40 40 40 45 73 80 86 85 93 88 98 98 100 95 94 88 82 75 72 59 60 66 68 70 74 78 84 83 81 82 83 82 82 80 81 87 82 84
66 66 57 52 48 46 45 45 47 64 72 85 86 85 94 92 99 100 94 95 95 90 83 77 73 62 63 64 66 67 68 71 88 92 86 82 80 80 82 80 83 82 83
77 69 64 60 55 52 50 47 49 64 70 67 80 84 94 88 98 98 100 100 95 91 87 82 78 72 64 63 62 62 65 66 68 73 92 92 89 88 94 94 94 94 84
80 76 71 66 62 58 56 53 52 57 66 75 73 82 84 82 92 98 99 100 99 94 88 85 85 82 79 68 62 62 59 61 66 66 74 90 92 94 94 93 88 84 84
86 72 66 67 66 65 63 59 57 60 61 75 74 77 82 91 89 92 87 91 100 100 95 90 85 89 84 88 82 66 60 58 62 65 68 80 91 91 91 90 87 82 84
96 84 73 66 64 67 65 62 60 60 66 74 77 76 78 79 82 82 88 86 91 78 86 93 90 83 77 67 78 84 71 58 60 64 67 67 83 82 82 89 88 81 81
92 97 87 77 72 69 68 68 66 65 64 68 74 76 78 78 76 76 79 80 88 77 71 73 77 79 79 73 55 64 71 66 61 64 66 69 74 80 68 75 72 83 77
93 98 98 86 78 76 76 75 74 72 71 71 73 73 76 74 80 76 77 89 96 95 86 72 71 75 77 75 71 60 60 54 62 64 66 70 73 76 71 67 68 74 74
97 98 98 91 79 75 76 77 76 76 74 76 79 78 80 78 75 78 81 80 79 89 88 76 78 71 68 69 63 65 64 56 62 60 62 68 69 70 72 72 70 72 72
98 98 93 85 79 70 67 72 76 76 78 80 84 88 87 85 80 78 78 74 77 81 88 69 67 68 68 67 65 65 65 64 62 64 66 67 69 69 70 74 72 70 70
99 91 90 89 81 71 67 69 71 75 78 79 79 84 81 75 75 77 80 78 75 78 85 75 73 70 72 74 73 72 70 72 72 72 73 68 69 66 70 71 73 73 76
100 100 100 99 94 92 80 76 77 76 79 82 82 72 72 68 73 70 76 82 81 74 78 86 80 79 78 74 71 75 76 75 75 76 72 68 71 76 78 79 80 80 82
98 99 98 100 100 92 86 84 86 83 85 82 80 72 65 66 65 72 72 81 75 74 71 81 82 78 78 77 82 83 84 85 85 77 71 80 80 82 77 77 79 84 87
100 98 98 99 100 100 99 94 90 97 92 91 90 84 64 72 70 66 66 69 72 76 79 88 92 90 90 87 80 80 86 85 84 76 75 77 74 73 78 84 79 76 77
100 99 98 98 99 100 100 98 99 100 100 99 99 84 77 79 78 72 68 70 71 82 90 88 88 80 92 98 93 90 85 86 83 86 90 86 73 78 82 81 84 84 86
100 98 95 95 97 100 99 100 100 100 100 100 98 89 86 85 78 82 85 81 72 77 94 98 90 95 93 92 86 83 87 99 98 76 81 87 87 86 81 79 75 79 84
96 97 97 98 97 94 98 100 100 100 100 99 100 100 99 93 88 84 80 82 92 98 93 91 96 91 88 78 78 93 99 90 81 73 81 92 88 86 84 88 88 88 91
88 91 88 86 89 91 97 100 99 100 92 84 99 99 98 98 97 98 96 99 99 99 100 98 100 99 97 93 92 92 94 94 92 95 99 99 97 97 94 98 99 100 100
78 70 72 80 85 91 98 100 99 99 100 100 100 98 99 96 96 100 100 99 100 100 100 100 100 100 100 99 96 98 100 100 100 100 100 100 99 100 100 99 99 100 100
75 73 69 74 84 90 97 100 99 100 100 100 100 100 99 100 99 95 98 100 100 100 100 100 100 98 97 96 98 100 100 100 100 100 100 100 100 98 94 97 99 95 84

GFSMA_925_rhum_168.txt.gz
RH
37 36 37 36 43 54 67 78 97 98 98 95 88 81 77 75 74 73 69 66 66 69 70 90 90 96 97 92 85 84 87 91 95 96 94 94 84 72 73 81 89 96 98
41 40 38 37 37 39 52 63 71 79 99 99 98 95 87 80 76 76 76 70 68 62 69 71 91 89 97 94 85 83 82 88 91 96 96 95 94 86 78 79 95 99 99
50 47 44 42 39 38 38 42 54 65 71 80 98 97 95 95 90 84 83 77 71 66 56 68 82 88 89 95 92 83 82 82 86 94 93 97 94 94 82 78 95 96 93
64 60 53 47 43 41 41 40 39 45 55 65 74 82 87 95 98 95 90 85 78 74 68 54 65 71 75 89 93 90 88 80 79 85 92 94 96 90 96 80 80 88 92
74 71 63 56 50 49 46 44 42 43 43 47 54 66 77 91 97 99 98 95 89 82 79 72 49 55 66 71 89 91 89 85 81 80 81 84 86 84 82 77 74 80 88
82 79 74 67 61 56 52 51 48 45 46 45 45 45 52 61 73 92 98 100 96 91 88 85 77 61 54 64 69 81 87 88 85 82 80 78 79 77 78 79 79 79 84
86 84 79 74 67 62 59 52 45 45 47 47 50 49 51 54 58 61 70 85 97 97 98 96 93 84 70 58 62 67 74 80 88 85 79 80 76 79 78 79 78 78 82
75 84 81 78 73 67 63 60 56 51 48 47 48 47 48 38 41 49 53 59 74 95 97 100 98 90 91 86 67 58 65 73 79 84 86 82 77 77 79 82 80 80 80
61 65 81 86 79 75 69 66 62 60 55 50 50 52 49 42 30 30 43 53 63 83 99 100 99 100 97 96 91 70 56 58 68 83 87 84 84 84 81 82 84 84 81
79 80 77 79 86 76 72 70 66 66 59 56 52 54 56 51 51 47 38 49 61 76 87 98 100 100 99 100 100 90 79 67 62 70 85 87 87 92 95 90 86 82 84
80 83 87 82 90 85 75 70 71 68 63 62 58 55 55 56 56 56 60 44 43 59 80 94 98 100 100 100 100 98 99 87 90 74 88 94 92 94 96 95 93 87 84
86 88 92 89 93 90 83 76 72 70 69 66 62 60 58 56 52 55 60 56 52 47 44 64 95 97 100 100 100 100 95 96 93 98 93 95 98 99 97 97 93 90 88
92 91 91 91 92 96 90 83 78 78 77 73 70 67 64 62 60 59 61 60 59 56 56 50 47 67 88 98 100 100 97 96 94 96 93 85 96 99 98 93 91 89 90
92 93 92 92 93 96 90 84 80 78 78 80 79 76 72 69 66 66 68 67 71 62 58 55 59 55 56 64 84 100 100 98 93 83 85 82 74 80 82 83 90 88 90
92 94 98 99 94 89 86 82 78 75 73 72 72 71 72 68 67 68 71 72 70 76 65 55 58 58 62 68 73 87 100 99 96 88 79 86 82 76 72 72 84 87 88
96 99 100 100 99 99 97 84 78 74 73 72 70 71 70 68 69 72 77 78 75 74 76 56 55 64 70 75 77 79 83 88 91 93 83 82 75 70 68 69 80 85 81
98 99 100 100 98 98 99 100 97 84 79 74 72 72 71 71 72 75 78 81 83 80 80 67 56 57 65 74 70 71 73 76 80 85 83 82 80 78 75 75 81 77 79
99 99 100 99 98 99 100 100 99 94 89 85 80 77 75 72 74 74 76 75 78 74 76 73 62 59 60 71 64 80 70 81 82 80 83 87 85 83 81 81 81 82 80
95 98 98 99 98 98 98 99 99 100 100 100 100 100 97 92 91 90 82 78 76 74 72 72 71 65 64 73 60 67 70 74 90 89 86 87 86 86 88 84 78 72 75
87 90 90 90 91 92 96 100 100 98 96 96 98 100 100 100 99 100 96 82 78 68 72 76 71 76 71 72 62 68 72 71 82 92 89 84 82 82 82 81 75 73 76
77 83 84 82 83 85 83 99 99 98 95 95 95 96 99 100 99 100 100 98 85 71 71 76 81 84 77 65 63 67 76 77 79 87 86 82 87 86 80 66 68 68 70
71 76 74 70 66 65 85 99 100 96 96 94 91 90 90 95 97 96 99 100 99 100 86 68 70 68 66 68 71 66 81 84 89 80 93 83 85 83 88 77 73 70 73
71 71 72 71 69 73 92 100 99 96 97 100 98 100 100 93 100 99 92 92 97 100 99 100 83 71 66 68 74 76 79 82 84 77 93 82 95 95 94 80 86 84 82
72 72 71 72 74 75 84 90 99 98 99 100 100 99 100 100 99 99 99 98 99 97 94 98 100 100 95 87 94 99 97 95 89 93 98 98 86 94 97 99 97 94 93
72 73 73 76 76 78 89 93 98 99 99 99 100 100 100 100 99 84 86 100 100 100 100 100 100 100 100 100 99 99 100 100 100 100 99 100 100 99 100 100 100 96 98
70 72 70 64 67 86 90 90 92 99 100 99 99 99 99 100 100 99 99 99 100 100 100 100 100 99 99 98 95 98 100 100 100 100 100 100 100 100 100 100 100 100 100